Location: Boissi�res
(45.2500°N, 2.3667°E)
Time: 23:40:55
(UTC+00:00)

Meteor 1-19 Rocket - Pass Details

Date: 03 March 2021
Orbit: 807 x 928 km, 81.2° (Epoch: 18 April)

Event Time Altitude Azimuth Distance (km) Brightness Sun altitude
Rises 18:41:21 0° 348° (NNW) 3,566 7.6 -11.5°
Reaches altitude 10° 18:43:52 10° 348° (NNW) 2,608 6.9 -11.9°
Maximum altitude 18:49:49 85° 262° (W) 903 4.4 -13.0°
Drops below altitude 10° 18:55:34 10° 174° (S) 2,514 6.6 -14.0°
Sets 18:57:57 0° 173° (S) 3,429 7.2 -14.4°
